Flag for Egypt Weather past 2 weeks in Port Said, Egypt

Now
64 °F

Clear.


Feels Like: 64 °F
Forecast: 63 / 68 °F
Wind: No wind

Location: Port Said Airport

Current Time: Dec 18, 2014 at 10:19:14 PM

Latest Report: Dec 18, 2014 at 9:00 PM


Visibility: 10 mi

Pressure: 30.07 "Hg

Humidity: 68%

Dew point: 54 °F

Location of Port SaidLocation

Historic Weather in Port Said — Graph

°F

Port Said temperature yesterday

Maximum temperature yesterday: 72 °F (at 1:00 PM)
Minimum temperature yesterday: 63 °F (at 4:00 AM)
Average temperature yesterday: 65 °F

Past Weeks' High & Low Weather Summary

 TemperatureHumidityPressure
High77 °F (Dec 4, 11:00 AM)94% (Dec 4, 6:00 AM)30.24 "Hg (Dec 4, 6:00 AM)
Low54 °F (Dec 13, 5:00 AM)38% (Dec 9, 2:00 PM)29.77 "Hg (Dec 9, 2:00 AM)
Average66 °F74%30.05 "Hg
* Reported Dec 3 9:00 PM — Dec 18 9:00 PM, Port Said, Weather by CustomWeather, © 2014

Note: Actual official high and low records may vary slightly from our data, if they occured in-between our weather recording intervals... More about our weather records

Advertising

Port Said weather history for previous 24 hours

 ConditionsComfort  
Time TempWeatherWind HumidityBarometerVisibility
9:00 PM
Dec 18
64 °FClear.No wind68%30.07 "Hg10 mi
8:00 PM64 °FClear.No wind68%30.07 "Hg4 mi
7:00 PM64 °FClear.5 mph68%30.07 "Hg4 mi
6:00 PM64 °FClear.5 mph68%30.07 "Hg4 mi
5:00 PM66 °FClear.5 mph64%30.04 "Hg4 mi
4:00 PM66 °FClear.7 mph60%30.04 "Hg4 mi
3:00 PM68 °FSunny.5 mph53%30.04 "Hg10 mi
2:00 PM68 °FClear.6 mph53%30.04 "Hg4 mi
1:00 PM66 °FClear.6 mph56%30.04 "Hg4 mi
12:00 PM66 °FClear.7 mph56%30.07 "Hg4 mi
11:00 AM64 °FClear.7 mph56%30.09 "Hg4 mi
10:00 AM61 °FSunny.8 mph77%30.09 "Hg10 mi
9:00 AM59 °FSunny.6 mph82%30.07 "Hg10 mi
8:00 AM59 °FSunny.7 mph77%30.09 "Hg10 mi
7:00 AM61 °FSunny.6 mph72%30.09 "Hg10 mi
6:00 AM61 °FClear.3 mph77%30.07 "Hg10 mi
5:00 AM63 °FClear.No wind68%30.07 "Hg10 mi
4:00 AM63 °FClear.No wind68%30.07 "Hg10 mi
3:00 AM63 °FClear.No wind68%30.07 "Hg10 mi
2:00 AM63 °FClear.No wind68%30.09 "Hg10 mi
1:00 AM64 °FClear.No wind64%30.09 "Hg10 mi
12:00 AM64 °FClear.No wind64%30.12 "Hg10 mi
11:00 PM
Dec 17
64 °FClear.No wind64%30.12 "Hg10 mi
10:00 PM64 °FClear.No wind64%30.12 "Hg10 mi
Weather by CustomWeather, © 2014

See weather overviewHow to use our weather pages